Regional Weather Roundup
Issued by NWS Bismarck, ND

Home | Current Version | Previous Version | Text Only | Print | Product List | Glossary On
Versions: 1 2 3 4 5 6 7 8 9 10 11 12 13 14 15 16 17 18 19 20 21 22 23 24 25 26 27 28 29 30 31 32 33 34 35 36 37 38 39 40 41 42 43 44 45 46 47 48 49 50
000
ASUS43 KBIS 010210
RWRBIS

NWR BROADCAST TEXT
NATIONAL WEATHER SERVICE BISMARCK ND
900 PM CDT TUE JUN 30 2015

NOTE: "FAIR" INDICATES FEW OR NO CLOUDS BELOW 12,000 FEET WITH NO
SIGNIFICANT WEATHER AND/OR OBSTRUCTIONS TO VISIBILITY.


CITY           SKY/WX    TMP DP  RH WIND       PRES   REMARKS
WILLISTON      MOCLDY    69  59  70 E16G22    29.91R HAZE
MINOT          CLOUDY    68  64  87 CALM      29.92R FOG
MINOT AFB      LGT RAIN  66  66 100 NE5       29.91R FOG
BISMARCK       CLOUDY    71  65  81 E10       29.88S
DICKINSON      CLOUDY    70  60  70 E12       29.86S
GARRISON         N/A     65  62  90 CALM      29.93R
HETTINGER ARPT TSTM      73  65  75 VRB5      29.89R
JAMESTOWN      CLOUDY    68  59  73 E8        29.90S
BEACH          LGT RAIN  68  68 100 SE6       29.86R
CROSBY         MOCLDY    63  63 100 E6        29.92F FOG
HARVEY         FAIR      66  66 100 E3        29.91R
HAZEN          CLOUDY    68  64  88 NE13G21   29.91R
LINTON         CLOUDY    70  68  94 SE8       29.88S
MANDAN         MOCLDY    68  64  88 E7        29.90R
OAKES            N/A     68  63  83 E9        29.89S
STANLEY        FOG       64  64 100 SE6       29.94F VSB 1
$$

CITY           SKY/WX    TMP DP  RH WIND       PRES   REMARKS
GRAND FORKS    CLOUDY    70  61  73 CALM      29.90S
GRAND FORKS AF CLOUDY    68  62  81 CALM      29.91S
DEVILS LAKE    CLOUDY    66  59  77 SE8       29.91F
FARGO          CLOUDY    70  62  76 NE3       29.90R
CANDO          FAIR      64  63  94 E3        29.94R
CAVALIER       FAIR      72  63  73 SW3       29.91S HAZE
GRAFTON        FAIR      70  61  73 S3        29.92R
LANGDON        FAIR      68  63  83 SE5       29.94S
ROLLA          FAIR      64  63  94 S5        29.95R
WALHALLA       FAIR      70  66  88 MISG      29.92R
$$

CITY           SKY/WX    TMP DP  RH WIND       PRES   REMARKS
ABERDEEN       MOCLDY    71  64  78 W3        29.88R
MOBRIDGE       PTCLDY    70  68  93 E8        29.85S FOG
BUFFALO          N/A     79  68  69 S10       29.79R
RAPID CITY     CLEAR     77  69  76 E6        29.89S
SIDNEY         PTCLDY    73  61  64 NE15      29.87R
WOLF POINT     PTCLDY    72  59  63 E17G25    29.85R HAZE
GLENDIVE       CLEAR     73  59  60 NE7       29.84S
MILES CITY     CLEAR     90  48  23 N21       29.83R
BAKER          CLEAR     78  65  63 NE15      29.87R
$$

CITY           SKY/WX    TMP DP  RH WIND       PRES   REMARKS
BILLINGS       PTCLDY    89  42  19 N13       29.94S
GREAT FALLS    SUNNY     84  48  28 N17       29.97R
REGINA         MOCLDY    64  61  88 VRB2      29.92F SMOKE
ESTEVAN        CLOUDY    66  64  94 S6        29.92F SMOKE
$$



USA.gov is the U.S. government's official web portal to all federal, state and local government web resources and services.